Weather in Jhelum

Pakistan     32°55′56″N   73°43′02″E
temp.,
°C
wind,
m/s
gust,
m/s
humid.,
%
clouds,
%
prec.,
mm/h
press.,
hPa
HPBL,
m
29 november, mon
mon2923:00+15nnw22350 0.0 101911
02:00+14n22380 0.0 101911
05:00+13nnw22425 0.0 101912
08:00+15nnw24397 0.0 102193
11:00+22wnw3424100 0.0 1021587
14:00+25wnw452097 0.0 10181147
17:00+20nw44295 0.0 101740
20:00+16nw3337100 0.0 101824
30 november, tue
tue3023:00+15nw333965 0.0 101826
02:00+14nw3342100 0.0 101724
05:00+13nw2242100 0.0 101616
08:00+15nnw2237100 0.0 101757
11:00+21wnw2222100 0.0 1017505
14:00+24wnw222020 0.0 1014982
17:00+20wsw11260 0.0 101311
20:00+17nne11300 0.0 101611
1 december, wed
wed123:00+15nne11341 0.0 101711
02:00+14nne1137100 0.0 101710
05:00+13nne114017 0.0 101710
08:00+14nnw113885 0.0 101913
11:00+21wnw11260 0.0 1019453
14:00+23ssw1121100 0.0 10161004
17:00+19s112778 0.0 101611
20:00+17ne11320 0.0 101811
2 december, thu
thu223:00+15n11350 0.0 101810
02:00+14nnw22380 0.0 101712
05:00+13nnw22390 0.0 101713
08:00+14nw23350 0.0 101960
11:00+21wnw33200 0.0 1018538
14:00+24w22160 0.0 1015969
17:00+20wnw22220 0.0 101411
20:00+16nnw22260 0.0 101611
3 december, fri
fri323:00+15nnw12280 0.0 101610
02:00+13n11310 0.0 101611
05:00+12nnw22320 0.0 101610
08:00+14nnw11300 0.0 101816
11:00+21nw11190 0.0 1018429
14:00+24wnw11160 0.0 1015745
17:00+20ssw11212 0.0 101611
20:00+17n11240 0.0 101811